Погода в Киржаче

Россия / Владимирская область     56°09′42″N   38°52′19″E
темп.,
°C
ветер,
м/с
пор.,
м/с
влажн.,
%
обл.,
%
осадки,
мм/ч
давл.,
гПа
погр.,
м
17 мая, пн
пн1700:00+12ссз11923 0.0 101410
03:00+12всв119298 0.0 101510
06:00+14всв239133 0.0 101579
09:00+19вюв357259 0.0 1015417
12:00+24вюв454928 0.0 10141237
15:00+26вюв575127 0.0 10131417
18:00+25в496399 0.0 1011631
21:00+18юв31381100 0.2 1012303
18 мая, вт
вт1800:00+17юв31378100 0.0 1012291
03:00+15вюв313845 0.0 1012269
06:00+16вюв414715 0.0 1011356
09:00+22юв513510 0.0 1011635
12:00+26юв61039100 0.0 10111253
15:00+28юв5123639 0.0 10103239
18:00+25юв5114739 0.0 1009844
21:00+19вюв416665 0.0 1010608
19 мая, ср
ср1900:00+18вюв416747 0.0 1009536
03:00+16юв313810 0.0 1010370
06:00+16вюв3107816 0.0 1009326
09:00+22юв5115579 0.0 1009738
12:00+26юв6143918 0.0 10081739
15:00+27юв5144383 0.0 10083137
18:00+24юв5125455 0.0 10081249
21:00+18вюв3108996 1.6 1009210
20 мая, чт
чт2000:00+17вюв4149074 1.8 1008497
03:00+16в269566 2.1 1008139
06:00+17в411885 0.0 1007384
09:00+21юв58631 0.0 1007897
12:00+21вюв696845 0.8 10061455
15:00+17ююв511924 5.0 1006803
18:00+18ююв487247 0.1 10061236
21:00+15ююв2785100 0.3 1005253
21 мая, пт
пт2100:00+13ююв31094100 0.1 1005352
03:00+12ююв41196100 0.1 1005602
06:00+11ю5108790 0.1 1005835
09:00+13ю61270100 0.2 10061190
12:00+14ю61268100 0.1 10061658
15:00+15ююз71459100 0.4 10051987
18:00+11ююз61081100 0.5 10061074
21:00+9ююз61188100 0.6 1007826